KT2UU-13 Weather Reports


time (UTC)temp
C
wind
direction
speed
KPH
gust
KPH
rain 1hr
cm
rain 24hr
cm
rain mn
cm
humidity
%
barometer
mb
20260508145652 17 19 3.2 11.3 0.00 0.00 0.00 59 1018.9
20260508145149 17 222 0.0 0.0 0.00 0.00 0.00 66 1019.0
20260508144646 16 222 0.0 3.2 0.00 0.00 0.00 65 1019.1
20260508144144 17 222 0.0 0.0 0.00 0.00 0.00 67 1019.2
20260508143641 16 222 0.0 0.0 0.00 0.00 0.00 68 1019.1
20260508143138 17 222 0.0 0.0 0.00 0.00 0.00 65 1019.0
20260508142634 16 223 1.6 1.6 0.00 0.00 0.00 71 1019.1
20260508142131 15 222 1.6 3.2 0.00 0.00 0.00 71 1019.0
20260508141628 16 222 1.6 3.2 0.00 0.00 0.00 69 1019.0
20260508141126 15 222 1.6 1.6 0.00 0.00 0.00 72 1019.2
20260508140623 15 217 1.6 1.6 0.00 0.00 0.00 76 1019.1
20260508140120 15 217 0.0 3.2 0.00 0.00 0.00 78 1018.9
20260508135614 15 219 0.0 0.0 0.00 0.00 0.00 80 1018.8
20260508135110 14 217 1.6 3.2 0.00 0.00 0.00 79 1018.9
20260508134608 15 219 0.0 0.0 0.00 0.00 0.00 79 1019.0
20260508134104 15 198 0.0 1.6 0.00 0.00 0.00 75 1019.2
20260508133601 15 219 0.0 0.0 0.00 0.00 0.00 76 1019.2
20260508133059 15 220 0.0 0.0 0.00 0.00 0.00 78 1019.0
20260508132551 14 217 1.6 1.6 0.00 0.00 0.00 82 1019.1
20260508132047 15 219 0.0 1.6 0.00 0.00 0.00 79 1018.9
20260508131542 14 197 0.0 1.6 0.00 0.00 0.00 81 1019.0
20260508131034 14 218 0.0 0.0 0.00 0.00 0.00 79 1019.0
20260508130531 14 219 1.6 1.6 0.00 0.00 0.00 79 1019.2
20260508130027 14 218 0.0 0.0 0.00 0.00 0.00 79 1019.3
20260508125523 14 218 0.0 0.0 0.00 0.00 0.00 80 1019.4
20260508125021 12 217 0.0 1.6 0.00 0.00 0.00 84 1019.3
20260508124519 13 335 0.0 0.0 0.00 0.00 0.00 82 1019.3
20260508124016 12 335 0.0 3.2 0.00 0.00 0.00 84 1019.4
20260508123514 12 326 0.0 3.2 0.00 0.00 0.00 85 1019.1
20260508123010 12 237 0.0 1.6 0.00 0.00 0.00 86 1019.0
20260508122508 12 236 0.0 0.0 0.00 0.00 0.00 89 1019.1
20260508122004 12 253 0.0 0.0 0.00 0.00 0.00 89 1019.1
20260508121502 11 248 0.0 0.0 0.00 0.00 0.00 91 1019.1
20260508121000 11 276 0.0 0.0 0.00 0.00 0.00 94 1019.0
20260508120457 10 277 0.0 0.0 0.00 0.00 0.00 96 1018.8
20260508115955 10 279 0.0 0.0 0.00 0.00 0.00 97 1018.7
20260508115453 10 279 0.0 0.0 0.00 0.00 0.00 98 1018.8
20260508114949 10 279 0.0 0.0 0.00 0.00 0.00 98 1018.5
20260508114446 9 279 0.0 0.0 0.00 0.00 0.00 99 1018.5
20260508113942 9 279 0.0 0.0 0.00 0.00 0.00 99 1018.3
20260508113440 8 279 0.0 0.0 0.00 0.00 0.00 99 1018.2
20260508112937 8 279 0.0 0.0 0.00 0.00 0.00 99 1017.9
20260508112434 8 279 0.0 0.0 0.00 0.00 0.00 99 1017.9
20260508111930 8 279 0.0 0.0 0.00 0.00 0.00 99 1017.8
20260508111428 8 279 0.0 0.0 0.00 0.00 0.00 99 1017.6
20260508110925 8 279 0.0 0.0 0.00 0.00 0.00 99 1017.6
20260508110423 8 279 0.0 0.0 0.00 0.00 0.00 99 1017.8
20260508105922 8 279 0.0 0.0 0.00 0.00 0.00 99 1017.6
20260508105418 8 279 0.0 0.0 0.00 0.00 0.00 99 1017.5
20260508104916 8 279 0.0 0.0 0.00 0.00 0.00 99 1017.3
20260508104413 8 279 0.0 0.0 0.00 0.00 0.00 99 1017.2
20260508103910 8 279 0.0 0.0 0.00 0.00 0.00 99 1017.2
20260508103407 8 279 0.0 0.0 0.00 0.00 0.00 99 1017.1
20260508102904 8 279 0.0 0.0 0.00 0.00 0.00 99 1017.1
20260508102403 8 279 0.0 0.0 0.00 0.00 0.00 98 1016.9
20260508101859 8 279 0.0 0.0 0.00 0.00 0.00 98 1016.9
20260508101356 8 279 0.0 0.0 0.00 0.00 0.00 98 1016.8
20260508100854 8 279 0.0 0.0 0.00 0.00 0.00 98 1016.6
20260508100353 8 279 0.0 0.0 0.00 0.00 0.00 98 1016.5
20260508095848 8 279 0.0 0.0 0.00 0.00 0.00 98 1016.5
20260508095346 8 279 0.0 0.0 0.00 0.00 0.00 98 1016.5
20260508094842 9 279 0.0 0.0 0.00 0.00 0.00 98 1016.6
20260508094339 9 279 0.0 0.0 0.00 0.00 0.00 98 1016.6
20260508093836 9 279 0.0 0.0 0.00 0.00 0.00 97 1016.5
20260508093334 9 279 0.0 0.0 0.00 0.00 0.00 97 1016.5
20260508092831 9 279 0.0 0.0 0.00 0.00 0.00 97 1016.5
20260508092329 9 279 0.0 0.0 0.00 0.00 0.00 96 1016.3
20260508091827 9 279 0.0 0.0 0.00 0.00 0.00 96 1016.3
20260508091323 9 279 0.0 0.0 0.00 0.00 0.00 95 1016.5
20260508090821 9 279 0.0 0.0 0.00 0.00 0.00 95 1016.6
20260508090320 9 279 0.0 0.0 0.00 0.00 0.00 95 1016.5
20260508085814 9 279 0.0 0.0 0.00 0.00 0.00 95 1016.4
20260508085312 9 257 0.0 0.0 0.00 0.00 0.00 95 1016.4
20260508084808 9 281 0.0 0.0 0.00 0.00 0.00 95 1016.3
20260508084305 10 281 0.0 0.0 0.00 0.00 0.00 96 1016.4
20260508083803 10 281 0.0 0.0 0.00 0.00 0.00 96 1016.5
20260508083300 10 281 0.0 0.0 0.00 0.00 0.00 96 1016.1
20260508082800 10 281 0.0 0.0 0.00 0.00 0.00 96 1016.2
20260508082258 10 282 0.0 0.0 0.00 0.00 0.00 96 1016.3
20260508081755 10 281 0.0 0.0 0.00 0.00 0.00 96 1016.2
20260508081252 10 282 0.0 0.0 0.00 0.00 0.00 96 1016.2
20260508080748 10 287 0.0 0.0 0.00 0.00 0.00 96 1016.4
20260508080247 10 287 0.0 0.0 0.00 0.00 0.00 96 1016.1
20260508075743 10 287 0.0 0.0 0.00 0.00 0.00 96 1016.3
20260508075240 10 255 0.0 0.0 0.00 0.00 0.00 97 1016.1
20260508074738 10 252 0.0 0.0 0.00 0.00 0.00 97 1016.3
20260508074235 10 255 0.0 0.0 0.00 0.00 0.00 97 1016.3
20260508073732 10 266 0.0 0.0 0.00 0.00 0.00 97 1016.3
20260508073230 10 245 0.0 0.0 0.00 0.00 0.00 97 1016.5
20260508072725 10 255 3.2 3.2 0.00 0.00 0.00 97 1016.5
20260508072223 10 0 0.0 0.0 0.00 0.00 0.00 97 1016.4
20260508071720 10 10 0.0 0.0 0.00 0.00 0.00 97 1016.7
20260508071218 10 0 0.0 0.0 0.00 0.00 0.00 97 1016.3
20260508070715 10 0 0.0 0.0 0.00 0.00 0.00 97 1016.5
20260508070214 10 0 0.0 0.0 0.00 0.00 0.00 97 1016.6
20260508065710 10 0 0.0 0.0 0.00 0.00 0.00 97 1016.7
20260508065209 10 0 0.0 0.0 0.00 0.00 0.00 97 1016.7
20260508064706 10 0 0.0 0.0 0.00 0.00 0.00 97 1016.6
20260508064204 10 0 0.0 0.0 0.00 0.00 0.00 97 1016.5
20260508063701 11 0 0.0 0.0 0.00 0.00 0.00 97 1016.7
20260508063159 11 0 0.0 0.0 0.00 0.00 0.00 97 1016.7
20260508062656 11 0 0.0 0.0 0.00 0.00 0.00 97 1016.6
20260508062153 11 0 0.0 0.0 0.00 0.00 0.00 97 1016.8
20260508061650 11 0 0.0 1.6 0.00 0.00 0.00 98 1016.8
20260508061148 11 0 1.6 1.6 0.00 0.00 0.00 98 1016.6
20260508060644 11 0 0.0 0.0 0.00 0.00 0.00 98 1016.8
20260508060141 11 0 0.0 0.0 0.00 0.00 0.00 98 1016.6
20260508055637 11 0 0.0 1.6 0.00 0.00 0.00 98 1016.8
20260508055134 11 0 0.0 0.0 0.00 0.00 0.00 98 1016.8
20260508054630 11 0 0.0 1.6 0.00 0.00 0.00 98 1016.8
20260508054128 11 0 0.0 0.0 0.00 0.00 0.00 98 1016.7
20260508053625 11 0 0.0 0.0 0.00 0.00 0.00 97 1016.6
20260508053122 11 0 0.0 0.0 0.00 0.00 0.00 97 1016.8
20260508052620 11 0 0.0 0.0 0.00 0.00 0.00 97 1016.8
20260508052116 11 0 0.0 0.0 0.00 0.00 0.00 96 1016.5
20260508051613 11 0 0.0 0.0 0.00 0.00 0.00 96 1016.6
20260508051108 11 0 0.0 0.0 0.00 0.00 0.00 95 1016.9
20260508050604 11 0 0.0 0.0 0.00 0.00 0.00 94 1016.8
20260508045558 12 0 0.0 0.0 0.00 0.00 0.00 94 1017.0
20260508045056 12 0 0.0 1.6 0.00 0.00 0.00 94 1017.0
20260508044553 12 229 0.0 1.6 0.00 0.00 0.00 93 1017.0
20260508044049 12 229 0.0 0.0 0.00 0.00 0.00 91 1016.9
20260508043546 12 228 0.0 1.6 0.00 0.00 0.00 91 1016.9
20260508043043 12 257 0.0 0.0 0.00 0.00 0.00 95 1016.7
20260508042539 12 274 0.0 0.0 0.00 0.00 0.00 95 1016.6
20260508042037 12 206 0.0 1.6 0.00 0.00 0.00 96 1016.6
20260508041533 12 206 0.0 0.0 0.00 0.00 0.00 95 1016.8
20260508041030 12 228 0.0 0.0 0.00 0.00 0.00 94 1016.8
20260508040527 12 228 0.0 0.0 0.00 0.00 0.00 94 1016.9
20260508040025 12 229 0.0 0.0 0.00 3.40 3.40 95 1016.7
20260508035521 12 248 0.0 1.6 0.00 3.40 3.40 96 1016.6
20260508035018 12 205 0.0 1.6 0.00 3.40 3.40 98 1016.6
20260508034515 12 224 0.0 0.0 0.00 3.40 3.40 99 1016.6
20260508034012 12 224 0.0 0.0 0.00 3.40 3.40 99 1016.8
20260508033510 12 203 0.0 0.0 0.00 3.40 3.40 99 1016.7
20260508033008 12 225 0.0 0.0 0.00 3.40 3.40 99 1016.7
20260508032504 12 225 0.0 0.0 0.00 3.40 3.40 99 1016.8
20260508032002 12 225 0.0 0.0 0.00 3.40 3.40 99 1016.7
20260508031459 12 224 0.0 0.0 0.00 3.40 3.40 99 1016.6
20260508030954 12 225 0.0 0.0 0.00 3.40 3.40 99 1016.5
20260508030451 12 225 0.0 0.0 0.00 3.40 3.40 99 1016.6
20260508025949 12 225 0.0 0.0 0.00 3.40 3.40 99 1016.6
20260508025445 12 225 0.0 0.0 0.00 3.40 3.40 99 1016.3
20260508024943 12 203 0.0 0.0 0.00 3.40 3.40 99 1016.4
20260508024438 13 225 0.0 0.0 0.00 3.40 3.40 99 1016.3
20260508023935 13 225 0.0 0.0 0.00 3.40 3.40 99 1016.5
20260508023432 13 225 0.0 0.0 0.00 3.40 3.40 99 1016.6
20260508022929 13 225 0.0 0.0 0.00 3.40 3.40 99 1016.4
20260508022425 13 225 0.0 0.0 0.00 3.40 3.40 99 1016.6
20260508021922 13 225 0.0 0.0 0.00 3.40 3.40 98 1016.3
20260508021418 13 225 0.0 0.0 0.00 3.40 3.40 98 1016.5
20260508020914 13 225 0.0 0.0 0.00 3.40 3.40 98 1016.5
20260508020412 13 204 0.0 0.0 0.00 3.40 3.40 98 1016.4
20260508015909 13 225 0.0 0.0 0.00 3.40 3.40 98 1016.1
20260508015407 14 225 0.0 0.0 0.00 3.40 3.40 98 1016.2
20260508014903 14 225 0.0 0.0 0.00 3.40 3.40 98 1016.0
20260508014400 14 225 0.0 0.0 0.00 3.40 3.40 98 1015.9
20260508013855 14 225 0.0 0.0 0.00 3.40 3.40 98 1015.8
20260508013352 14 225 0.0 0.0 0.00 3.40 3.40 97 1015.7
20260508012849 14 225 0.0 0.0 0.00 3.40 3.40 97 1015.5
20260508012346 14 225 0.0 0.0 0.00 3.40 3.40 96 1015.6
20260508011844 14 225 0.0 0.0 0.00 3.40 3.40 96 1015.5
20260508011342 14 225 0.0 0.0 0.00 3.40 3.40 96 1015.6
20260508010839 15 225 0.0 0.0 0.00 3.40 3.40 95 1015.5
20260508010336 15 225 0.0 0.0 0.00 3.40 3.40 95 1015.6
20260508005833 15 225 0.0 0.0 0.00 3.40 3.40 95 1015.4
20260508005330 15 225 0.0 0.0 0.00 3.40 3.40 94 1015.5
20260508004826 15 225 0.0 0.0 0.00 3.40 3.40 94 1015.4
20260508004322 15 225 0.0 0.0 0.00 3.40 3.40 94 1015.2
20260508003819 16 225 0.0 0.0 0.00 3.40 3.40 93 1015.3
20260508003316 16 225 0.0 0.0 0.00 3.40 3.40 93 1015.4
20260508002813 16 225 0.0 0.0 0.00 3.40 3.40 92 1015.2
20260508002310 16 225 0.0 0.0 0.00 3.40 3.40 92 1015.4
20260508001806 16 225 0.0 0.0 0.00 3.40 3.40 91 1015.3
20260508001302 17 225 0.0 0.0 0.00 3.40 3.40 89 1015.3
20260508000758 17 225 0.0 0.0 0.00 3.40 3.40 87 1015.1
20260508000257 17 225 0.0 0.0 0.00 3.40 3.40 86 1015.1
20260507235751 17 225 0.0 0.0 0.00 3.40 3.40 84 1014.9
20260507235249 17 225 0.0 0.0 0.00 3.40 3.40 83 1014.8
20260507234746 17 225 0.0 0.0 0.00 3.40 3.40 82 1014.8
20260507234242 18 225 0.0 0.0 0.00 3.40 3.40 81 1014.6
20260507233739 18 225 0.0 0.0 0.00 3.40 3.40 80 1014.6
20260507233237 18 225 0.0 0.0 0.00 3.40 3.40 80 1014.8
20260507232734 18 225 0.0 0.0 0.00 3.40 3.40 77 1014.9
20260507232231 18 206 0.0 0.0 0.00 3.40 3.40 77 1014.7
20260507231727 18 225 0.0 0.0 0.00 3.40 3.40 76 1014.6
20260507231225 18 225 0.0 1.6 0.00 3.40 3.40 75 1014.7
20260507230721 18 271 1.6 3.2 0.00 3.40 3.40 74 1014.7
20260507230219 18 252 1.6 3.2 0.00 3.40 3.40 75 1014.6
20260507225718 18 239 0.0 1.6 0.00 3.40 3.40 75 1014.6
20260507225215 18 251 0.0 3.2 0.00 3.40 3.40 75 1014.5
20260507224710 18 206 1.6 3.2 0.00 3.40 3.40 74 1014.7
20260507224207 18 266 3.2 4.8 0.00 3.40 3.40 74 1014.7
20260507223703 18 235 1.6 6.4 0.00 3.40 3.40 73 1014.4
20260507223201 19 197 1.6 6.4 0.00 3.40 3.40 72 1014.5
20260507222657 19 264 0.0 4.8 0.00 3.40 3.40 74 1014.5
20260507222153 19 236 3.2 4.8 0.00 3.40 3.40 73 1014.6
20260507221650 19 229 1.6 1.6 0.00 3.40 3.40 71 1014.6
20260507221146 18 227 4.8 6.4 0.00 3.40 3.40 71 1014.3
20260507220643 19 227 6.4 9.7 0.00 3.40 3.40 70 1014.6
20260507220142 19 155 3.2 9.7 0.00 3.40 3.40 71 1014.8
20260507215637 19 246 3.2 11.3 0.00 3.40 3.40 70 1014.8
20260507215135 19 257 1.6 6.4 0.00 3.40 3.40 70 1014.7
20260507214632 20 215 3.2 11.3 0.00 3.40 3.40 69 1014.4
20260507214128 19 254 6.4 11.3 0.00 3.40 3.40 70 1014.6
20260507213625 20 250 4.8 9.7 0.00 3.40 3.40 69 1014.7
20260507213122 20 236 6.4 12.9 0.00 3.40 3.40 69 1014.4
20260507212618 20 262 9.7 16.1 0.00 3.40 3.40 68 1014.3
20260507212115 20 115 1.6 4.8 0.00 3.40 3.40 72 1014.3
20260507211612 20 234 4.8 4.8 0.00 3.40 3.40 69 1014.2
20260507211107 19 246 0.0 1.6 0.00 3.40 3.40 71 1014.1
20260507210605 19 273 3.2 9.7 0.00 3.40 3.40 71 1014.0
20260507205558 20 255 6.4 12.9 0.00 3.40 3.40 69 1014.2
20260507205054 20 279 3.2 6.4 0.00 3.40 3.40 69 1014.1
20260507204551 20 336 1.6 9.7 0.00 3.40 3.40 72 1014.1
20260507204048 20 122 1.6 4.8 0.00 3.40 3.40 71 1014.0
20260507203546 19 340 0.0 3.2 0.00 3.40 3.40 75 1013.8
20260507203043 19 233 1.6 3.2 0.00 3.40 3.40 72 1013.8
20260507202539 19 222 0.0 3.2 0.00 3.40 3.40 74 1013.7
20260507202035 19 283 0.0 4.8 0.00 3.40 3.40 73 1013.8
20260507201531 19 194 3.2 3.2 0.00 3.40 3.40 73 1014.1
20260507201027 20 198 1.6 4.8 0.00 3.40 3.40 70 1014.1
20260507200523 20 219 3.2 9.7 0.00 3.40 3.40 68 1013.9
20260507200019 20 250 4.8 9.7 0.00 3.40 3.40 69 1013.9
20260507195517 20 186 3.2 9.7 0.00 3.40 3.40 74 1014.0
20260507195014 20 223 9.7 12.9 0.00 3.40 3.40 70 1014.1
20260507194510 19 235 6.4 6.4 0.00 3.40 3.40 72 1014.0
20260507194007 19 249 1.6 9.7 0.00 3.40 3.40 74 1014.2
20260507193504 19 264 1.6 4.8 0.00 3.40 3.40 74 1014.1
20260507193001 20 191 6.4 12.9 0.00 3.40 3.40 74 1014.3
20260507192456 19 236 6.4 14.5 0.00 3.40 3.40 74 1014.3
20260507191954 19 250 3.2 6.4 0.00 3.40 3.40 74 1014.4
20260507191449 18 296 4.8 9.7 0.00 3.40 3.40 77 1014.3
20260507190946 18 201 6.4 9.7 0.00 3.40 3.40 78 1014.6
20260507190444 19 204 6.4 9.7 0.00 3.40 3.40 76 1014.3
20260507185943 19 200 1.6 6.4 0.00 3.40 3.40 78 1014.3
20260507185439 19 208 3.2 3.2 0.00 3.40 3.40 77 1014.2
20260507184936 19 255 1.6 6.4 0.00 3.40 3.40 78 1014.5
20260507184434 18 266 1.6 14.5 0.00 3.40 3.40 77 1014.5
20260507183932 19 261 3.2 4.8 0.00 3.40 3.40 76 1014.6
20260507183428 19 250 1.6 3.2 0.00 3.40 3.40 79 1014.5
20260507182926 19 179 3.2 9.7 0.00 3.40 3.40 79 1014.4
20260507182421 18 279 1.6 1.6 0.00 3.40 3.40 79 1014.4
20260507181918 18 262 0.0 14.5 0.00 3.40 3.40 81 1014.5
20260507181414 18 185 3.2 4.8 0.00 3.40 3.40 80 1014.7
20260507180911 17 211 6.4 11.3 0.00 3.40 3.40 82 1014.8
20260507180407 17 247 4.8 6.4 0.00 3.40 3.40 81 1014.7
20260507175903 18 190 6.4 11.3 0.00 3.40 3.40 82 1014.9
20260507175400 17 122 1.6 9.7 0.00 3.40 3.40 85 1014.8
20260507174858 17 248 0.0 6.4 0.00 3.40 3.40 84 1014.8
20260507174355 16 249 1.6 6.4 0.00 3.40 3.40 86 1014.7
20260507173853 16 5 4.8 12.9 0.00 3.40 3.40 86 1015.0
20260507173349 16 207 3.2 9.7 0.00 3.40 3.40 85 1014.8
20260507172846 16 187 4.8 6.4 0.00 3.40 3.40 87 1014.9
20260507172342 16 220 0.0 6.4 0.00 3.40 3.40 87 1014.7
20260507171838 16 353 3.2 4.8 0.00 3.40 3.40 88 1014.6
20260507171335 15 350 0.0 3.2 0.00 3.40 3.40 90 1014.9
20260507170832 15 271 3.2 4.8 0.00 3.40 3.40 90 1014.9
20260507170329 15 261 4.8 9.7 0.00 3.40 3.40 91 1014.9
20260507165825 15 263 1.6 6.4 0.00 3.40 3.40 92 1015.2
20260507165321 14 208 3.2 11.3 0.00 3.40 3.40 94 1015.1
20260507164817 14 335 6.4 12.9 0.00 3.40 3.40 94 1015.1
20260507164314 15 211 6.4 12.9 0.00 3.40 3.40 94 1015.1
20260507163811 15 252 3.2 6.4 0.00 3.40 3.40 94 1015.1
20260507163309 15 235 6.4 11.3 0.00 3.40 3.40 94 1015.1
20260507162805 15 205 3.2 6.4 0.00 3.40 3.40 95 1014.9
20260507162301 15 194 3.2 9.7 0.00 3.40 3.40 94 1014.7
20260507161758 15 238 1.6 12.9 0.00 3.40 3.40 95 1014.7
20260507161254 15 251 8.0 11.3 0.00 3.40 3.40 94 1014.7
20260507160750 15 197 3.2 9.7 0.00 3.40 3.40 95 1014.6
20260507160247 15 226 6.4 11.3 0.00 3.40 3.40 95 1014.2
20260507155743 15 233 4.8 12.9 0.00 3.40 3.40 95 1014.4
20260507155239 15 259 3.2 9.7 0.00 3.40 3.40 96 1014.2
20260507154736 15 232 6.4 11.3 0.00 3.40 3.40 97 1014.3
20260507154234 15 317 4.8 11.3 0.00 3.40 3.40 97 1014.2
20260507153730 15 173 3.2 4.8 0.00 3.40 3.40 99 1014.3
20260507153226 15 231 1.6 4.8 0.00 3.40 3.40 99 1014.2
20260507152723 15 183 1.6 3.2 0.00 3.40 3.40 99 1014.0
20260507152219 15 224 3.2 4.8 0.00 3.40 3.40 99 1014.1
20260507151715 15 310 1.6 6.4 0.00 3.40 3.40 99 1014.0
20260507151212 15 130 0.0 3.2 0.00 3.40 3.40 99 1014.1
20260507150709 14 246 0.0 4.8 0.00 3.40 3.40 99 1013.9
20260507150206 14 234 3.2 16.1 0.00 3.40 3.40 99 1014.1